Location: Sungai Apap
(2.6167°N, 113.3833°E)
Time: 15:03:51
(UTC+00:00)

Cosmos 1892 Rocket - Pass Details

Date: 12 August 2024
Orbit: 602 x 628 km, 82.5° (Epoch: 18 September)

Event Time Altitude Azimuth Distance (km) Brightness Sun altitude
Rises 12:14:32 0° 214° (SSW) 2,902 7.2 -24.1°
Reaches altitude 10° 12:17:28 10° 234° (SW) 1,988 6.6 -24.8°
Maximum altitude 12:20:16 17° 274° (W) 1,587 6.5 -25.5°
Drops below altitude 10° 12:23:05 10° 314° (NW) 1,973 6.9 -26.1°
Sets 12:25:59 0° 335° (NNW) 2,869 7.6 -26.8°
